| time (UTC) | temp C | wind direction | speed KPH | gust KPH | rain 1hr cm | rain 24hr cm | rain mn cm | humidity % | barometer mb |
| 20260904102204 | 12 | 116 | 0.0 | 0.0 | 0.00 | 0.08 | 0.00 | 89 | 1009.5 |
| 20260904101204 | 12 | 116 | 0.0 | 0.0 | 0.00 | 0.08 | 0.00 | 88 | 1009.3 |
| 20260904100704 | 12 | 116 | 0.0 | 1.6 | 0.00 | 0.08 | 0.00 | 88 | 1009.3 |
| 20260904095704 | 12 | 116 | 0.0 | 3.2 | 0.00 | 0.08 | 0.00 | 88 | 1009.1 |
| 20260904094705 | 12 | 116 | 0.0 | 0.0 | 0.00 | 0.08 | 0.00 | 88 | 1009.2 |
| 20260904092204 | 12 | 89 | 0.0 | 1.6 | 0.00 | 0.08 | 0.00 | 86 | 1009.0 |
| 20260904091704 | 12 | 69 | 0.0 | 0.0 | 0.00 | 0.08 | 0.00 | 84 | 1008.9 |
| 20260904091204 | 12 | 69 | 0.0 | 0.0 | 0.00 | 0.08 | 0.00 | 84 | 1009.0 |
| 20260904090704 | 12 | 69 | 0.0 | 0.0 | 0.00 | 0.08 | 0.00 | 85 | 1009.1 |
| 20260904090204 | 12 | 69 | 0.0 | 0.0 | 0.00 | 0.08 | 0.00 | 84 | 1009.1 |
| 20260904085204 | 13 | 69 | 0.0 | 0.0 | 0.00 | 0.08 | 0.00 | 84 | 1009.2 |
| 20260904084204 | 13 | 69 | 0.0 | 0.0 | 0.00 | 0.08 | 0.00 | 85 | 1009.3 |
| 20260904083205 | 13 | 69 | 0.0 | 0.0 | 0.00 | 0.08 | 0.00 | 84 | 1009.4 |
| 20260904082204 | 13 | 69 | 0.0 | 0.0 | 0.00 | 0.08 | 0.00 | 84 | 1009.5 |
| 20260904080704 | 13 | 69 | 0.0 | 0.0 | 0.00 | 0.08 | 0.00 | 82 | 1009.5 |
| 20260904075704 | 13 | 69 | 0.0 | 0.0 | 0.00 | 0.08 | 0.00 | 83 | 1009.4 |
| 20260904074704 | 13 | 69 | 0.0 | 0.0 | 0.00 | 0.08 | 0.00 | 80 | 1009.4 |
| 20260904074204 | 13 | 69 | 0.0 | 0.0 | 0.00 | 0.08 | 0.00 | 80 | 1009.4 |
| 20260904073705 | 13 | 69 | 0.0 | 0.0 | 0.00 | 0.08 | 0.00 | 81 | 1009.3 |
| 20260904073205 | 13 | 69 | 0.0 | 0.0 | 0.00 | 0.08 | 0.00 | 81 | 1009.3 |
| 20260904070705 | 13 | 69 | 0.0 | 0.0 | 0.00 | 0.08 | 0.00 | 80 | 1009.1 |
| 20260904070204 | 13 | 69 | 0.0 | 0.0 | 0.00 | 0.08 | 0.00 | 80 | 1009.1 |
| 20260904064704 | 13 | 69 | 0.0 | 0.0 | 0.00 | 0.08 | 0.08 | 82 | 1009.2 |
| 20260904063204 | 13 | 69 | 0.0 | 0.0 | 0.00 | 0.08 | 0.08 | 80 | 1009.1 |
| 20260904062704 | 13 | 69 | 0.0 | 0.0 | 0.00 | 0.08 | 0.08 | 80 | 1009.1 |
| 20260904061204 | 13 | 69 | 0.0 | 0.0 | 0.00 | 0.08 | 0.08 | 81 | 1009.0 |
| 20260904060705 | 13 | 69 | 0.0 | 0.0 | 0.00 | 0.08 | 0.08 | 79 | 1008.9 |
| 20260904055204 | 13 | 69 | 0.0 | 0.0 | 0.00 | 0.08 | 0.08 | 80 | 1009.0 |
| 20260904053204 | 14 | 69 | 0.0 | 0.0 | 0.00 | 0.08 | 0.08 | 77 | 1009.0 |
| 20260904051704 | 14 | 69 | 0.0 | 0.0 | 0.00 | 0.08 | 0.08 | 75 | 1009.1 |
| 20260904051204 | 14 | 69 | 0.0 | 0.0 | 0.00 | 0.08 | 0.08 | 75 | 1009.1 |
| 20260904045704 | 15 | 69 | 0.0 | 0.0 | 0.00 | 0.08 | 0.08 | 75 | 1009.1 |
| 20260904044205 | 15 | 69 | 0.0 | 0.0 | 0.00 | 0.08 | 0.08 | 75 | 1009.1 |
| 20260904043705 | 15 | 69 | 0.0 | 0.0 | 0.00 | 0.08 | 0.08 | 75 | 1009.1 |
| 20260904043205 | 15 | 69 | 0.0 | 0.0 | 0.00 | 0.08 | 0.08 | 75 | 1009.0 |
| 20260904042704 | 15 | 69 | 0.0 | 0.0 | 0.00 | 0.08 | 0.08 | 76 | 1009.1 |
| 20260904042204 | 14 | 69 | 0.0 | 0.0 | 0.00 | 0.08 | 0.08 | 77 | 1009.2 |
| 20260904041704 | 14 | 69 | 0.0 | 0.0 | 0.00 | 0.08 | 0.08 | 77 | 1009.2 |
| 20260904040705 | 14 | 69 | 0.0 | 0.0 | 0.00 | 0.08 | 0.08 | 78 | 1009.1 |
| 20260904035704 | 14 | 69 | 0.0 | 0.0 | 0.00 | 0.08 | 0.08 | 78 | 1009.0 |
| 20260904035204 | 14 | 69 | 0.0 | 0.0 | 0.00 | 0.08 | 0.08 | 78 | 1009.0 |
| 20260904034704 | 14 | 69 | 0.0 | 0.0 | 0.00 | 0.08 | 0.08 | 77 | 1008.9 |
| 20260904034204 | 14 | 69 | 0.0 | 0.0 | 0.00 | 0.08 | 0.08 | 77 | 1008.8 |
| 20260904033204 | 14 | 69 | 0.0 | 0.0 | 0.00 | 0.08 | 0.08 | 78 | 1008.8 |
| 20260904032704 | 15 | 69 | 0.0 | 0.0 | 0.00 | 0.08 | 0.08 | 78 | 1008.7 |
| 20260904032204 | 15 | 69 | 0.0 | 0.0 | 0.00 | 0.08 | 0.08 | 79 | 1008.6 |
| 20260904031204 | 15 | 69 | 0.0 | 0.0 | 0.00 | 0.08 | 0.08 | 78 | 1008.6 |
| 20260904025704 | 15 | 69 | 0.0 | 0.0 | 0.00 | 0.08 | 0.08 | 77 | 1008.5 |
| 20260904024204 | 15 | 69 | 0.0 | 0.0 | 0.00 | 0.08 | 0.08 | 77 | 1008.5 |
| 20260904023704 | 15 | 69 | 0.0 | 0.0 | 0.00 | 0.08 | 0.08 | 79 | 1008.3 |
| 20260904023204 | 15 | 69 | 0.0 | 0.0 | 0.00 | 0.08 | 0.08 | 79 | 1008.3 |
| 20260904022204 | 15 | 69 | 0.0 | 0.0 | 0.00 | 0.08 | 0.08 | 77 | 1008.2 |
| 20260904021704 | 16 | 69 | 0.0 | 0.0 | 0.00 | 0.08 | 0.08 | 78 | 1008.2 |
| 20260904021204 | 16 | 69 | 0.0 | 0.0 | 0.00 | 0.08 | 0.08 | 77 | 1008.2 |
| 20260904020704 | 16 | 69 | 0.0 | 0.0 | 0.00 | 0.08 | 0.08 | 77 | 1008.2 |
| 20260904020204 | 16 | 69 | 0.0 | 0.0 | 0.00 | 0.08 | 0.08 | 76 | 1008.1 |
| 20260904015704 | 16 | 69 | 0.0 | 0.0 | 0.00 | 0.08 | 0.08 | 76 | 1008.0 |
| 20260904015204 | 16 | 69 | 0.0 | 0.0 | 0.00 | 0.08 | 0.08 | 76 | 1008.0 |
| 20260904014704 | 16 | 69 | 0.0 | 0.0 | 0.00 | 0.08 | 0.08 | 76 | 1008.1 |
| 20260904014204 | 16 | 69 | 0.0 | 0.0 | 0.00 | 0.08 | 0.08 | 74 | 1008.2 |
| 20260904012704 | 17 | 69 | 0.0 | 0.0 | 0.00 | 0.08 | 0.08 | 74 | 1008.1 |
| 20260904012204 | 17 | 69 | 0.0 | 0.0 | 0.00 | 0.08 | 0.08 | 72 | 1008.1 |
| 20260904011704 | 17 | 69 | 0.0 | 0.0 | 0.00 | 0.08 | 0.08 | 74 | 1008.1 |
| 20260904010704 | 17 | 69 | 0.0 | 3.2 | 0.00 | 0.08 | 0.08 | 73 | 1008.0 |
| 20260904005704 | 17 | 125 | 0.0 | 1.6 | 0.00 | 0.08 | 0.08 | 74 | 1008.0 |
| 20260904004204 | 17 | 125 | 0.0 | 3.2 | 0.00 | 0.08 | 0.08 | 72 | 1007.9 |
| 20260904003704 | 17 | 125 | 0.0 | 1.6 | 0.00 | 0.08 | 0.08 | 73 | 1007.9 |
| 20260904002704 | 17 | 125 | 0.0 | 3.2 | 0.00 | 0.08 | 0.08 | 72 | 1007.9 |
| 20260904001704 | 17 | 125 | 0.0 | 3.2 | 0.00 | 0.08 | 0.08 | 72 | 1007.9 |
| 20260904001204 | 17 | 125 | 0.0 | 3.2 | 0.00 | 0.08 | 0.08 | 73 | 1007.9 |
| 20260904000704 | 17 | 125 | 0.0 | 1.6 | 0.00 | 0.08 | 0.08 | 73 | 1007.9 |
| 20260903234704 | 17 | 125 | 0.0 | 3.2 | 0.00 | 0.08 | 0.08 | 75 | 1007.9 |
| 20260903234203 | 17 | 125 | 0.0 | 3.2 | 0.00 | 0.08 | 0.08 | 74 | 1007.9 |
| 20260903233204 | 17 | 125 | 0.0 | 3.2 | 0.00 | 0.08 | 0.08 | 76 | 1008.0 |
| 20260903232704 | 17 | 125 | 0.0 | 1.6 | 0.00 | 0.08 | 0.08 | 72 | 1008.0 |
| 20260903231204 | 17 | 128 | 0.0 | 3.2 | 0.00 | 0.10 | 0.08 | 73 | 1008.0 |
| 20260903230704 | 17 | 128 | 0.0 | 3.2 | 0.00 | 0.13 | 0.08 | 76 | 1008.0 |
| 20260903225704 | 17 | 14 | 0.0 | 3.2 | 0.00 | 0.18 | 0.08 | 73 | 1008.2 |
| 20260903225204 | 17 | 14 | 0.0 | 3.2 | 0.00 | 0.20 | 0.08 | 72 | 1008.1 |
| 20260903224204 | 17 | 34 | 0.0 | 3.2 | 0.00 | 0.25 | 0.08 | 75 | 1008.2 |
| 20260903223204 | 17 | 188 | 0.0 | 1.6 | 0.00 | 0.28 | 0.08 | 74 | 1008.2 |
| 20260903222204 | 17 | 186 | 0.0 | 0.0 | 0.00 | 0.30 | 0.08 | 75 | 1008.2 |
| 20260903215704 | 17 | 186 | 1.6 | 1.6 | 0.00 | 0.33 | 0.08 | 70 | 1008.3 |
| 20260903214204 | 17 | 11 | 0.0 | 3.2 | 0.00 | 0.36 | 0.08 | 72 | 1008.2 |
| 20260903213704 | 17 | 11 | 0.0 | 1.6 | 0.00 | 0.36 | 0.08 | 72 | 1008.1 |
| 20260903213204 | 17 | 20 | 0.0 | 1.6 | 0.00 | 0.36 | 0.08 | 72 | 1008.2 |
| 20260903211704 | 17 | 227 | 0.0 | 3.2 | 0.00 | 0.38 | 0.08 | 73 | 1008.1 |
| 20260903210704 | 17 | 213 | 0.0 | 3.2 | 0.00 | 0.38 | 0.08 | 75 | 1008.1 |
| 20260903210204 | 17 | 169 | 0.0 | 3.2 | 0.00 | 0.38 | 0.08 | 73 | 1008.1 |
| 20260903205704 | 17 | 158 | 0.0 | 3.2 | 0.00 | 0.38 | 0.08 | 74 | 1008.1 |
| 20260903204204 | 17 | 154 | 1.6 | 3.2 | 0.00 | 0.38 | 0.08 | 73 | 1008.0 |
| 20260903203205 | 18 | 201 | 1.6 | 3.2 | 0.00 | 0.38 | 0.08 | 70 | 1007.9 |
| 20260903202704 | 18 | 266 | 0.0 | 3.2 | 0.00 | 0.38 | 0.08 | 74 | 1007.8 |
| 20260903195704 | 17 | 222 | 0.0 | 3.2 | 0.00 | 0.38 | 0.08 | 75 | 1008.0 |
| 20260903195205 | 17 | 150 | 0.0 | 3.2 | 0.00 | 0.38 | 0.08 | 74 | 1008.0 |
| 20260903193204 | 17 | 203 | 0.0 | 3.2 | 0.00 | 0.43 | 0.08 | 76 | 1007.8 |
| 20260903192704 | 17 | 179 | 0.0 | 3.2 | 0.00 | 0.43 | 0.08 | 79 | 1007.8 |
| 20260903191704 | 16 | 308 | 1.6 | 3.2 | 0.00 | 0.43 | 0.08 | 80 | 1007.7 |
| 20260903191204 | 16 | 163 | 0.0 | 3.2 | 0.00 | 0.43 | 0.08 | 81 | 1007.8 |
| 20260903190704 | 16 | 173 | 0.0 | 3.2 | 0.00 | 0.43 | 0.08 | 83 | 1007.8 |
| 20260903190203 | 15 | 181 | 0.0 | 1.6 | 0.00 | 0.43 | 0.08 | 83 | 1007.8 |
| 20260903185704 | 15 | 181 | 0.0 | 3.2 | 0.00 | 0.43 | 0.08 | 82 | 1007.9 |
| 20260903184704 | 15 | 181 | 0.0 | 3.2 | 0.00 | 0.43 | 0.08 | 82 | 1008.0 |
| 20260903183704 | 15 | 337 | 0.0 | 3.2 | 0.00 | 0.43 | 0.08 | 82 | 1007.9 |
| 20260903182704 | 15 | 172 | 0.0 | 3.2 | 0.00 | 0.43 | 0.08 | 83 | 1007.7 |
| 20260903181704 | 15 | 308 | 0.0 | 1.6 | 0.00 | 0.43 | 0.08 | 83 | 1007.7 |
| 20260903180705 | 15 | 278 | 1.6 | 3.2 | 0.00 | 0.43 | 0.08 | 82 | 1007.6 |
| 20260903175704 | 15 | 223 | 0.0 | 3.2 | 0.00 | 0.43 | 0.08 | 84 | 1007.6 |
| 20260903175204 | 15 | 138 | 1.6 | 3.2 | 0.00 | 0.43 | 0.08 | 84 | 1007.6 |
| 20260903172204 | 14 | 126 | 1.6 | 3.2 | 0.00 | 0.43 | 0.08 | 89 | 1007.4 |
| 20260903171204 | 14 | 317 | 0.0 | 3.2 | 0.00 | 0.43 | 0.08 | 89 | 1007.4 |
| 20260903170704 | 14 | 345 | 0.0 | 3.2 | 0.00 | 0.43 | 0.08 | 89 | 1007.5 |
| 20260903165703 | 13 | 93 | 0.0 | 3.2 | 0.00 | 0.43 | 0.08 | 90 | 1007.4 |
| 20260903164704 | 13 | 136 | 0.0 | 3.2 | 0.00 | 0.43 | 0.08 | 90 | 1007.4 |
| 20260903164203 | 13 | 136 | 0.0 | 3.2 | 0.00 | 0.43 | 0.08 | 90 | 1007.4 |
| 20260903162704 | 13 | 127 | 0.0 | 3.2 | 0.00 | 0.43 | 0.08 | 93 | 1007.5 |
| 20260903160204 | 13 | 151 | 0.0 | 3.2 | 0.00 | 0.43 | 0.08 | 93 | 1007.4 |
| 20260903155204 | 13 | 151 | 0.0 | 3.2 | 0.00 | 0.43 | 0.08 | 94 | 1007.3 |
| 20260903154704 | 13 | 151 | 0.0 | 3.2 | 0.00 | 0.43 | 0.08 | 94 | 1007.3 |
| 20260903153704 | 13 | 151 | 0.0 | 3.2 | 0.00 | 0.43 | 0.08 | 94 | 1007.2 |
| 20260903152704 | 12 | 151 | 0.0 | 3.2 | 0.00 | 0.43 | 0.08 | 94 | 1007.2 |
| 20260903151704 | 12 | 151 | 0.0 | 3.2 | 0.03 | 0.43 | 0.08 | 94 | 1007.2 |
| 20260903151204 | 12 | 151 | 1.6 | 3.2 | 0.03 | 0.43 | 0.08 | 94 | 1007.2 |
| 20260903150704 | 12 | 151 | 0.0 | 3.2 | 0.03 | 0.43 | 0.08 | 94 | 1007.2 |
| 20260903144704 | 12 | 151 | 0.0 | 3.2 | 0.03 | 0.43 | 0.08 | 94 | 1007.1 |
| 20260903142704 | 12 | 151 | 0.0 | 3.2 | 0.03 | 0.43 | 0.08 | 94 | 1007.0 |
| 20260903141204 | 12 | 144 | 0.0 | 1.6 | 0.00 | 0.41 | 0.05 | 95 | 1006.8 |
| 20260903140704 | 12 | 144 | 0.0 | 3.2 | 0.00 | 0.41 | 0.05 | 95 | 1006.8 |
| 20260903140204 | 12 | 144 | 0.0 | 3.2 | 0.00 | 0.41 | 0.05 | 95 | 1006.8 |
| 20260903134704 | 12 | 144 | 0.0 | 3.2 | 0.00 | 0.41 | 0.05 | 95 | 1006.7 |
| 20260903134204 | 12 | 144 | 0.0 | 3.2 | 0.00 | 0.41 | 0.05 | 95 | 1006.7 |
| 20260903131704 | 12 | 144 | 0.0 | 3.2 | 0.00 | 0.41 | 0.05 | 95 | 1006.5 |
| 20260903125204 | 12 | 144 | 0.0 | 3.2 | 0.00 | 0.41 | 0.05 | 95 | 1006.4 |
| 20260903124704 | 12 | 144 | 0.0 | 3.2 | 0.00 | 0.41 | 0.05 | 95 | 1006.3 |
| 20260903124204 | 12 | 144 | 0.0 | 3.2 | 0.00 | 0.41 | 0.05 | 95 | 1006.4 |
| 20260903123704 | 12 | 144 | 0.0 | 3.2 | 0.00 | 0.41 | 0.05 | 95 | 1006.3 |
| 20260903123204 | 12 | 144 | 0.0 | 3.2 | 0.00 | 0.41 | 0.05 | 95 | 1006.3 |
| 20260903122704 | 12 | 144 | 0.0 | 3.2 | 0.00 | 0.41 | 0.05 | 95 | 1006.3 |
| 20260903122203 | 12 | 144 | 0.0 | 3.2 | 0.00 | 0.41 | 0.05 | 95 | 1006.3 |
| 20260903121704 | 12 | 144 | 0.0 | 3.2 | 0.03 | 0.41 | 0.05 | 95 | 1006.2 |
| 20260903120704 | 12 | 144 | 0.0 | 3.2 | 0.03 | 0.41 | 0.05 | 95 | 1006.2 |
| 20260903115704 | 12 | 144 | 0.0 | 3.2 | 0.05 | 0.41 | 0.05 | 94 | 1006.1 |
| 20260903113204 | 12 | 144 | 0.0 | 3.2 | 0.05 | 0.41 | 0.05 | 94 | 1006.1 |
| 20260903112704 | 12 | 105 | 0.0 | 1.6 | 0.05 | 0.41 | 0.05 | 93 | 1006.1 |
| 20260903105204 | 13 | 112 | 0.0 | 3.2 | 0.00 | 0.36 | 0.00 | 92 | 1006.1 |
| 20260903103204 | 13 | 125 | 0.0 | 3.2 | 0.00 | 0.36 | 0.00 | 92 | 1006.0 |